Tracking 25963 objects as of 13-Aug-2022
HD Live streaming from Space Station
objects crossing your sky now

STARLINK-2338

Track STARLINK-2338 now!
10-day predictions
STARLINK-2338 is classified as:


NORAD ID: 47793
Int'l Code: 2021-018G
Perigee: 553.7 km
Apogee: 555.0 km
Inclination: 53.1 °
Period: 95.6 minutes
Semi major axis: 6925 km
RCS: Unknown
Launch date: March 11, 2021
Source: United States (US)
Launch site: AIR FORCE EASTERN TEST RANGE (AFETR)
aabbcc
Your satellite tracking list
Your tracking list is empty




NASA's NSSDC Master Catalog

Two Line Element Set (TLE):
1 47793U 21018G   22224.54102863  .00004850  00000-0  34423-3 0  9999
2 47793  53.0548 330.6702 0000999  75.4886 284.6214 15.06401521 80159
Source of the keplerian elements: AFSPC